This demonstration page uses our WeatherBlox Daily Observations layout. Learn more.

Left ArrowRight Arrow

Hourly Observations for January 3, 2018

Temp ( °F °C ) Dew Point ( °F °C ) Humidity (%) Winds ( mph kmh ) Pressure ( in mb ) Visibility ( mi km ) Precip ( " mm )
12:15 am 00:15 Clear 1 -17 -2 -19 85 85 SSW 6 9 30.36 1028 10 16 N/A
12:35 am 00:35 Partly Cloudy 1 -17 -2 -19 85 85 SSW 6 9 30.36 1028 10 16 N/A
12:55 am 00:55 Partly Cloudy 3 -16 -2 -19 78 78 S 7 11 30.36 1028 10 16 N/A
1:15 am 01:15 Clear 1 -17 -2 -19 85 85 S 7 11 30.33 1027 10 16 N/A
1:35 am 01:35 Clear 3 -16 -2 -19 78 78 S 7 11 30.33 1027 10 16 N/A
1:55 am 01:55 Clear 3 -16 -2 -19 78 78 S 6 9 30.33 1027 10 16 N/A
2:15 am 02:15 Clear 1 -17 -2 -19 85 85 S 6 9 30.33 1027 10 16 N/A
2:35 am 02:35 Clear 1 -17 -2 -19 85 85 S 7 11 30.33 1027 10 16 N/A
2:55 am 02:55 Partly Cloudy 1 -17 -2 -19 85 85 S 7 11 30.30 1026 10 16 N/A
3:15 am 03:15 Partly Cloudy 1 -17 -2 -19 85 85 S 7 11 30.30 1026 10 16 N/A
3:35 am 03:35 Clear 3 -16 -2 -19 78 78 S 7 11 30.30 1026 10 16 N/A
3:55 am 03:55 Clear 3 -16 -2 -19 78 78 S 7 11 30.30 1026 10 16 N/A
4:15 am 04:15 Clear 3 -16 -2 -19 78 78 S 8 13 30.30 1026 10 16 N/A
4:35 am 04:35 Clear 3 -16 -2 -19 78 78 S 7 11 30.30 1026 10 16 N/A
4:55 am 04:55 Partly Cloudy 3 -16 N/A 85 85 S 9 15 30.30 1026 10 16 N/A
5:15 am 05:15 Partly Cloudy 3 -16 N/A 85 85 S 8 13 30.27 1025 10 16 N/A
5:35 am 05:35 Mostly Cloudy 5 -15 N/A 78 78 S 9 15 30.27 1025 10 16 N/A
5:55 am 05:55 Mostly Cloudy 7 -14 1 -17 78 78 S 10 17 30.27 1025 10 16 N/A
6:15 am 06:15 Cloudy 7 -14 1 -17 78 78 S 9 15 30.24 1024 10 16 N/A
6:35 am 06:35 Cloudy 7 -14 1 -17 78 78 SSW 7 11 30.24 1024 10 16 N/A
6:55 am 06:55 Cloudy 7 -14 1 -17 78 78 SSW 7 11 30.24 1024 10 16 N/A
7:15 am 07:15 Cloudy 9 -13 3 -16 78 78 S 9 15 30.24 1024 10 16 N/A
7:35 am 07:35 Partly Cloudy 9 -13 3 -16 78 78 S 8 13 30.24 1024 10 16 N/A
7:55 am 07:55 Mostly Cloudy 9 -13 3 -16 78 78 S 9 15 30.24 1024 10 16 N/A
8:15 am 08:15 Cloudy 9 -13 3 -16 78 78 S 9 15 30.24 1024 10 16 N/A
8:35 am 08:35 Cloudy 9 -13 3 -16 78 78 S 9 15 30.24 1024 10 16 N/A
8:55 am 08:55 Cloudy 10 -12 3 -16 72 72 S 9 15 30.18 1022 10 16 N/A
9:15 am 09:15 Cloudy 10 -12 5 -15 79 79 S 10 17 30.18 1022 10 16 N/A
9:35 am 09:35 Cloudy 10 -12 5 -15 79 79 SSW 8 13 30.24 1024 10 16 N/A
9:55 am 09:55 Cloudy 12 -11 5 -15 73 73 SSW 8 13 30.21 1023 10 16 N/A
10:15 am 10:15 Cloudy 12 -11 7 -14 79 79 SSW 8 13 30.18 1022 7 11 N/A
10:35 am 10:35 Cloudy 12 -11 7 -14 79 79 SSW 8 13 30.18 1022 5 8 N/A
10:55 am 10:55 Cloudy 14 -10 9 -13 79 79 SW 9 15 30.18 1022 7 11 N/A
11:15 am 11:15 Cloudy 14 -10 10 -12 85 85 SW 10 17 30.18 1022 10 16 N/A
11:35 am 11:35 Cloudy 16 -9 10 -12 79 79 SW 12 19 30.18 1022 10 16 N/A
11:55 am 11:55 Cloudy 18 -8 12 -11 79 79 WSW 10 17 30.18 1022 10 16 N/A
12:15 pm 12:15 Cloudy 18 -8 12 -11 79 79 WSW 12 19 30.15 1021 10 16 N/A
12:35 pm 12:35 Cloudy 18 -8 12 -11 79 79 WSW 10 17 30.15 1021 10 16 N/A
12:55 pm 12:55 Cloudy 19 -7 12 -11 73 73 W 14 22 30.15 1021 10 16 N/A
1:15 pm 13:15 Cloudy 19 -7 14 -10 79 79 W 14 22 30.15 1021 10 16 N/A
1:35 pm 13:35 Cloudy 19 -7 14 -10 79 79 W 12 19 30.12 1020 7 11 N/A
1:55 pm 13:55 Cloudy 19 -7 14 -10 79 79 W 14 22 30.12 1020 10 16 N/A
2:15 pm 14:15 Cloudy 19 -7 14 -10 79 79 W 14 22 30.12 1020 7 11 N/A
2:35 pm 14:35 Cloudy 19 -7 14 -10 79 79 W 14 22 30.12 1020 7 11 N/A
2:55 pm 14:55 Cloudy 19 -7 14 -10 79 79 W 17 28 30.15 1021 4 6 N/A
3:15 pm 15:15 Cloudy 19 -7 14 -10 79 79 W 15 24 30.15 1021 4 6 N/A
3:35 pm 15:35 Cloudy 19 -7 16 -9 86 86 W 10 17 30.15 1021 5 8 N/A
3:55 pm 15:55 Cloudy 19 -7 16 -9 86 86 W 12 19 30.15 1021 5 8 N/A
4:16 pm 16:16 Cloudy 19 -7 16 -9 86 86 W 12 19 30.15 1021 4 6 N/A
4:35 pm 16:35 Cloudy 18 -8 16 -9 93 93 WNW 16 26 30.15 1021 3 5 N/A
4:55 pm 16:55 Cloudy 16 -9 14 -10 93 93 WNW 15 24 30.18 1022 2 2 N/A
5:15 pm 17:15 Cloudy 16 -9 12 -11 86 86 NW 9 15 30.18 1022 3 4 N/A
5:35 pm 17:35 Cloudy 16 -9 10 -12 79 79 NW 14 22 30.18 1022 10 16 N/A
5:55 pm 17:55 Cloudy 16 -9 10 -12 79 79 NW 13 20 30.18 1022 10 16 N/A
6:15 pm 18:15 Cloudy 14 -10 9 -13 79 79 NW 15 24 30.18 1022 10 16 N/A
6:35 pm 18:35 Cloudy 14 -10 9 -13 79 79 WNW 9 15 30.21 1023 10 16 N/A
6:55 pm 18:55 Cloudy 14 -10 9 -13 79 79 WNW 9 15 30.21 1023 10 16 N/A
7:15 pm 19:15 Cloudy 14 -10 9 -13 79 79 WNW 12 19 30.21 1023 10 16 N/A
7:35 pm 19:35 Cloudy 12 -11 9 -13 85 85 NW 12 19 30.21 1023 10 16 N/A
7:55 pm 19:55 Cloudy 12 -11 7 -14 79 79 WNW 9 15 30.21 1023 10 16 N/A
8:15 pm 20:15 Cloudy 12 -11 9 -13 85 85 WNW 12 19 30.21 1023 10 16 N/A
8:35 pm 20:35 Partly Cloudy 10 -12 7 -14 85 85 WNW 10 17 30.27 1025 10 16 N/A
8:55 pm 20:55 Clear 9 -13 7 -14 92 92 W 10 17 30.24 1024 10 16 N/A
9:15 pm 21:15 Clear 9 -13 7 -14 92 92 WNW 9 15 30.24 1024 10 16 N/A
9:35 pm 21:35 Partly Cloudy 9 -13 7 -14 92 92 WNW 9 15 30.24 1024 10 16 N/A
9:55 pm 21:55 Mostly Cloudy 10 -12 7 -14 85 85 WNW 10 17 30.24 1024 10 16 N/A
10:15 pm 22:15 Cloudy 10 -12 7 -14 85 85 NW 12 19 30.27 1025 10 16 N/A
10:35 pm 22:35 Cloudy 10 -12 7 -14 85 85 WNW 10 17 30.24 1024 10 16 N/A
10:55 pm 22:55 Cloudy 10 -12 7 -14 85 85 WNW 10 17 30.24 1024 10 16 N/A
11:15 pm 23:15 Mostly Cloudy 9 -13 5 -15 85 85 WNW 12 19 30.24 1024 10 16 N/A
11:35 pm 23:35 Partly Cloudy 7 -14 5 -15 92 92 WNW 8 13 30.24 1024 10 16 N/A
11:55 pm 23:55 Clear 7 -14 3 -16 85 85 WNW 8 13 30.27 1025 10 16 N/A

Powered by AerisWeather